Weather History for Tunica, MS

Change the Weather History Date:

Wednesday, April 18, 2012

  Actual Average (KMEM) Record (KMEM)
Temperature  
Mean Temperature 58 °F 64 °F  
Max Temperature 73 °F 74 °F 92 °F (2006)
Min Temperature 44 °F 54 °F 37 °F (1961)
Degree Days  
Heating Degree Days 6 4  
Month to date heating degree days 104  
Since 1 July heating degree days 2912  
Cooling Degree Days 0 3  
Month to date cooling degree days 36  
Year to date cooling degree days 56  
Growing Degree Days 8 (Base 50)    
Moisture  
Dew Point 46 °F    
Average Humidity 65    
Maximum Humidity 100    
Minimum Humidity 31    
Precipitation  
Precipitation 0.00 in 0.19 in 2.58 in (1877)
Month to date precipitation 3.26  
Year to date precipitation 16.79  
Snow  
Snow 0.00 in 0.00 in - ()
Month to date snowfall 0.0  
Since 1 July snowfall 3.8  
Snow Depth -    
Sea Level Pressure  
Sea Level Pressure 30.14 in    
Wind  
Wind Speed 2 mph (NNE)    
Max Wind Speed 12 mph    
Max Gust Speed 16 mph    
Visibility 8 miles    
Events      
T = Trace of Precipitation, MM = Missing Value Source: NWS Daily Summary

Daily Weather History Graph

Daily Weather History Graph

Search for Another Location

Airport:

Trip Planner

Search our weather history database for the weather conditions in past years. The results will help you decide how hot, cold, wet, or windy it might be!

Date:

Astronomy

Apr. 18, 2012 Rise Set
Actual Time 6:25 AM CDT 7:36 PM CDT
Civil Twilight 5:59 AM CDT 8:02 PM CDT
Nautical Twilight 5:28 AM CDT 8:33 PM CDT
Astronomical Twilight 4:55 AM CDT 9:06 PM CDT
Moon 4:45 AM CDT (4/18) 5:31 PM CDT (4/18)
Length of Visible Light 14h 03m
Length of Day
13h 10m
Waning Crescent, 6% of the Moon is Illuminated
Apr 18
Waning Crescent
Apr 21
New
Apr 29
First Quarter
May 5
Full
May 12
Last Quarter

Hourly Weather History & Observations

Time (CDT) Temp. Dew Point Humidity Pressure Visibility Wind Dir Wind Speed Gust Speed Precip Events Conditions
12:15 AM 50.0 °F 48.2 °F 94% 30.24 in 3.0 mi Calm Calm - N/A   Clear
12:35 AM 50.0 °F 48.2 °F 94% 30.22 in 5.0 mi Calm Calm - N/A   Clear
12:55 AM 50.0 °F 48.2 °F 94% 30.22 in 5.0 mi Calm Calm - N/A   Clear
1:15 AM 50.0 °F 46.4 °F 87% 30.22 in 1.0 mi Calm Calm - N/A   Mist
1:35 AM 46.4 °F 46.4 °F 100% 30.21 in 5.0 mi Calm Calm - N/A   Clear
1:55 AM 46.4 °F 46.4 °F 100% 30.21 in 7.0 mi Calm Calm - N/A   Clear
2:15 AM 46.4 °F 44.6 °F 93% 30.21 in 7.0 mi Calm Calm - N/A   Clear
2:35 AM 48.2 °F 46.4 °F 93% 30.21 in 7.0 mi Calm Calm - N/A   Clear
2:55 AM 46.4 °F 44.6 °F 93% 30.20 in 2.5 mi Calm Calm - N/A   Clear
3:15 AM 46.4 °F 44.6 °F 93% 30.20 in 5.0 mi Calm Calm - N/A   Clear
3:35 AM 46.4 °F 44.6 °F 93% 30.19 in 5.0 mi Calm Calm - N/A   Clear
3:55 AM 46.4 °F 46.4 °F 100% 30.18 in 7.0 mi Calm Calm - N/A   Clear
4:15 AM 46.4 °F 44.6 °F 93% 30.18 in 7.0 mi Calm Calm - N/A   Clear
4:35 AM 46.4 °F 44.6 °F 93% 30.18 in 7.0 mi Calm Calm - N/A   Clear
4:55 AM 46.4 °F 44.6 °F 93% 30.18 in 5.0 mi Calm Calm - N/A   Clear
6:15 AM 44.6 °F 42.8 °F 93% 30.20 in 5.0 mi Calm Calm - N/A   Clear
6:55 AM 44.6 °F 44.6 °F 100% 30.20 in 3.0 mi Calm Calm - N/A   Clear
7:15 AM 46.4 °F 44.6 °F 93% 30.20 in 3.0 mi Calm Calm - N/A   Clear
7:35 AM 50.0 °F 48.2 °F 94% 30.20 in 5.0 mi Calm Calm - N/A   Clear
7:55 AM 51.8 °F 50.0 °F 94% 30.19 in 7.0 mi Calm Calm - N/A   Clear
8:15 AM 53.6 °F 50.0 °F 88% 30.20 in 10.0 mi North 6.9 mph - N/A   Clear
8:35 AM 55.4 °F 50.0 °F 82% 30.20 in 10.0 mi NNE 6.9 mph - N/A   Clear
8:55 AM 55.4 °F 50.0 °F 82% 30.21 in 10.0 mi Calm Calm - N/A   Clear
9:15 AM 57.2 °F 50.0 °F 77% 30.21 in 10.0 mi NNE 8.1 mph - N/A   Clear
9:55 AM 60.8 °F 50.0 °F 68% 30.20 in 10.0 mi NNE 9.2 mph - N/A   Clear
10:15 AM 62.6 °F 50.0 °F 63% 30.21 in 10.0 mi North 8.1 mph - N/A   Clear
10:35 AM 62.6 °F 48.2 °F 59% 30.20 in 10.0 mi NNE 6.9 mph - N/A   Clear
10:55 AM 64.4 °F 46.4 °F 52% 30.21 in 10.0 mi NNE 9.2 mph - N/A   Clear
11:15 AM 64.4 °F 46.4 °F 52% 30.20 in 10.0 mi NE 9.2 mph - N/A   Clear
11:35 AM 66.2 °F 46.4 °F 49% 30.18 in 10.0 mi NE 9.2 mph - N/A   Clear
11:55 AM 68.0 °F 46.4 °F 46% 30.18 in 10.0 mi NE 9.2 mph - N/A   Clear
12:15 PM 68.0 °F 44.6 °F 43% 30.18 in 10.0 mi North 10.4 mph - N/A   Clear
12:35 PM 68.0 °F 44.6 °F 43% 30.17 in 10.0 mi Calm Calm - N/A   Clear
12:55 PM 69.8 °F 44.6 °F 40% 30.16 in 10.0 mi NE 8.1 mph - N/A   Clear
1:15 PM 69.8 °F 42.8 °F 38% 30.15 in 10.0 mi North 5.8 mph - N/A   Clear
1:35 PM 69.8 °F 41.0 °F 35% 30.14 in 10.0 mi North 11.5 mph 16.1 mph N/A   Clear
1:55 PM 71.6 °F 42.8 °F 35% 30.14 in 10.0 mi North 10.4 mph - N/A   Clear
2:15 PM 71.6 °F 42.8 °F 35% 30.13 in 10.0 mi North 10.4 mph - N/A   Clear
2:35 PM 71.6 °F 42.8 °F 35% 30.13 in 10.0 mi North 8.1 mph - N/A   Clear
2:55 PM 71.6 °F 41.0 °F 33% 30.11 in 10.0 mi NNE 5.8 mph - N/A   Clear
3:15 PM 71.6 °F 41.0 °F 33% 30.11 in 10.0 mi NNE 8.1 mph - N/A   Clear
3:35 PM 71.6 °F 42.8 °F 35% 30.10 in 10.0 mi NE 8.1 mph - N/A   Clear
3:55 PM 71.6 °F 42.8 °F 35% 30.09 in 10.0 mi Calm Calm - N/A   Clear
4:15 PM 73.4 °F 42.8 °F 33% 30.08 in 10.0 mi North 6.9 mph - N/A   Clear
4:35 PM 73.4 °F 41.0 °F 31% 30.08 in 10.0 mi North 5.8 mph - N/A   Clear
4:55 PM 73.4 °F 41.0 °F 31% 30.08 in 10.0 mi North 5.8 mph - N/A   Clear
5:15 PM 71.6 °F 41.0 °F 33% 30.07 in 10.0 mi Calm Calm - N/A   Clear
5:35 PM 71.6 °F 39.2 °F 31% 30.07 in 10.0 mi Calm Calm - N/A   Clear
5:55 PM 71.6 °F 41.0 °F 33% 30.07 in 10.0 mi Calm Calm - N/A   Clear
6:15 PM 71.6 °F 41.0 °F 33% 30.06 in 10.0 mi Calm Calm - N/A   Clear
6:35 PM 69.8 °F 42.8 °F 38% 30.06 in 10.0 mi Calm Calm - N/A   Clear
6:55 PM 68.0 °F 46.4 °F 46% 30.06 in 10.0 mi Calm Calm - N/A   Clear
7:15 PM 66.2 °F 50.0 °F 56% 30.06 in 10.0 mi Calm Calm - N/A   Clear
7:35 PM 64.4 °F 50.0 °F 59% 30.06 in 10.0 mi Calm Calm - N/A   Clear
7:55 PM 62.6 °F 50.0 °F 63% 30.06 in 10.0 mi Calm Calm - N/A   Clear
8:15 PM 59.0 °F 50.0 °F 72% 30.07 in 10.0 mi Calm Calm - N/A   Clear
8:35 PM 60.8 °F 50.0 °F 68% 30.07 in 10.0 mi Calm Calm - N/A   Clear
8:55 PM 60.8 °F 50.0 °F 68% 30.08 in 10.0 mi Calm Calm - N/A   Clear
9:15 PM 60.8 °F 46.4 °F 59% 30.08 in 10.0 mi Calm Calm - N/A   Clear
9:35 PM 60.8 °F 46.4 °F 59% 30.08 in 10.0 mi Calm Calm - N/A   Clear
9:55 PM 55.4 °F 48.2 °F 77% 30.08 in 10.0 mi Calm Calm - N/A   Clear
10:15 PM 55.4 °F 46.4 °F 72% 30.08 in 10.0 mi Calm Calm - N/A   Clear
10:35 PM 55.4 °F 46.4 °F 72% 30.08 in 10.0 mi Calm Calm - N/A   Clear
10:55 PM 55.4 °F 46.4 °F 72% 30.08 in 10.0 mi Calm Calm - N/A   Clear
11:15 PM 53.6 °F 46.4 °F 77% 30.07 in 10.0 mi Calm Calm - N/A   Clear
11:35 PM 53.6 °F 48.2 °F 82% 30.07 in 10.0 mi Calm Calm - N/A   Clear
11:55 PM 55.4 °F 46.4 °F 72% 30.07 in 10.0 mi Calm Calm - N/A   Clear